Home   Weather   Ruda Śląska   Past weeks

Flag for Poland Past Weather in Ruda Śląska, Poland — Yesterday and Last 2 Weeks

46 °F

Drizzle. Fog.

Feels Like: 40 °F
Forecast: 44 / 50 °F
Wind: 15 mph from Southwest

Location: Katowice Airport

Current Time: Oct 28, 2016 at 10:03:53 PM

Latest Report: Oct 28, 2016 at 9:30 PM

Visibility: 1 mi

Pressure: 30.30 "Hg

Humidity: 100%

Dew Point: 46 °F

Location of Ruda ŚląskaLocation

Past Weather in Ruda Śląska — Graph


Ruda Śląska Temperature Yesterday

Maximum temperature yesterday: 46 °F (at 12:00 PM)
Minimum temperature yesterday: 28 °F (at 11:30 PM)
Average temperature yesterday: 39 °F

High & Low Weather Summary for the Past Weeks

High61 °F (Oct 24, 3:00 PM)100% (Oct 14, 3:00 AM)30.51 "Hg (Oct 14, 3:00 AM)
Low27 °F (Oct 28, 3:30 AM)44% (Oct 23, 3:00 PM)29.92 "Hg (Oct 21, 1:30 PM)
Average45 °F87%30.16 "Hg
* Reported Oct 13 9:00 PM — Oct 28 9:00 PM, Ruda Śląska, Weather by CustomWeather, © 2016

Note: Actual official high and low records may vary slightly from our data, if they occured in-between our weather recording intervals... More about our weather records


Ruda Śląska Weather History for the Previous 24 Hours

Scroll right to see more
Time TempWeatherWind HumidityBarometerVisibility
9:00 PM
Fri, Oct 28
46 °FDrizzle. Fog.15 mph100%30.30 "Hg1 mi
8:30 PM48 °FLight rain. Mostly cloudy.15 mph87%30.30 "Hg4 mi
8:00 PM48 °FLight rain. Passing clouds.15 mph87%30.30 "Hg4 mi
7:30 PM48 °FLight rain. Passing clouds.15 mph87%30.33 "Hg4 mi
7:00 PM48 °FLight rain. Passing clouds.13 mph87%30.33 "Hg4 mi
6:30 PM48 °FPassing clouds.12 mph87%30.33 "Hg5 mi
6:00 PM50 °FPassing clouds.14 mph82%30.33 "Hg5 mi
5:30 PM50 °FPassing clouds.13 mph82%30.33 "Hg4 mi
5:00 PM50 °FLight rain. Scattered clouds.14 mph82%30.33 "Hg5 mi
4:30 PM50 °FLight rain. Partly sunny.14 mph82%30.33 "Hg5 mi
4:00 PM52 °FPartly sunny.14 mph77%30.33 "Hg6 mi
3:30 PM52 °FPartly sunny.13 mph77%30.36 "Hg5 mi
3:00 PM50 °FScattered clouds.13 mph82%30.36 "Hg5 mi
2:30 PM50 °FScattered clouds.13 mph76%30.36 "Hg5 mi
2:00 PM50 °FClear.13 mph71%30.36 "Hg5 mi
1:30 PM48 °FClear.12 mph76%30.39 "Hg6 mi
1:00 PM48 °FClear.14 mph76%30.39 "Hg5 mi
12:30 PM50 °FClear.12 mph71%30.39 "Hg5 mi
12:00 PM48 °FClear.10 mph71%30.42 "Hg5 mi
11:30 AM46 °FClear.13 mph76%30.42 "Hg4 mi
11:00 AM45 °FClear.12 mph76%30.42 "Hg4 mi
10:30 AM43 °FClear.12 mph76%30.42 "Hg4 mi
10:00 AM41 °FClear.6 mph81%30.45 "Hg4 mi
9:30 AM37 °FFog.7 mph87%30.45 "Hg3 mi
9:00 AM36 °FFog.6 mph93%30.45 "Hg1 mi
8:30 AM32 °FIce fog.5 mph100%30.45 "Hg1 mi
8:00 AM32 °FIce fog.3 mph93%30.48 "Hg1 mi
7:30 AM30 °FChilly.3 mph93%30.45 "Hg1 mi
7:00 AM32 °FIce fog.2 mph93%30.45 "Hg1 mi
6:30 AM32 °FIce fog.6 mph93%30.45 "Hg1 mi
6:00 AM30 °FIce fog.5 mph93%30.48 "Hg1 mi
5:30 AM30 °FIce fog.5 mph93%30.48 "Hg1 mi
5:00 AM28 °FIce fog.3 mph93%30.48 "Hg1 mi
4:30 AM28 °FIce fog.5 mph100%30.48 "Hg1 mi
4:00 AM28 °FIce fog.2 mph93%30.48 "Hg1 mi
3:30 AM27 °FIce fog.1 mph93%30.48 "Hg2 mi
3:00 AM28 °FIce fog.2 mph100%30.48 "Hg1 mi
2:30 AM32 °FIce fog.6 mph100%30.51 "Hg2 mi
2:00 AM28 °FIce fog.2 mph100%30.51 "Hg1 mi
1:30 AM28 °FIce fog.2 mph100%30.51 "Hg2 mi
1:00 AM30 °FIce fog.2 mph93%30.51 "Hg2 mi
12:30 AM32 °FIce fog.6 mph93%30.51 "Hg2 mi
12:00 AM34 °FFog.7 mph93%30.51 "Hg1 mi
11:30 PM
Thu, Oct 27
28 °FIce fog.2 mph100%30.51 "Hg1 mi
11:00 PM30 °FIce fog.3 mph93%30.51 "Hg1 mi
10:30 PM30 °FChilly.2 mph93%30.51 "Hg1 mi
10:00 PM30 °FIce fog.2 mph93%30.51 "Hg2 mi
Weather by CustomWeather, © 2016

See weather overviewHow to use our weather pages